Location: Newark
(45.5167°N, 11.1667°E)
Time: 15:16:31
(UTC+00:00)

ISS - Pass Details

Date: 13 November 2019
Orbit: 412 x 421 km, 51.6° (Epoch: 05 December)

Event Time Altitude Azimuth Distance (km) Brightness Sun altitude
Exits shadow 04:46:45 14° 222° (SW) 1,302 -1.6 -14.8°
Drops below altitude 10° 04:48:15 10° 195° (SSW) 1,498 -1.0 -14.6°
Sets 04:51:07 0° 168° (SSE) 2,355 0.4 -14.1°
